This is the latest recevied weather packets stored in our database for station/object W6DSP. If no packets are shown the sender has not sent any weather packets the latest 10 day(s).
| Time | Temp. | Humidity | Pressure | Rain* | Wind** | Luminosity | Snow |
|---|---|---|---|---|---|---|---|
| 1777660637 | 11.11° C | 62% | 1016.2 hPa | 0 mm | - | - | - |
| 1777659911 | 11.11° C | 62% | 1016 hPa | 0 mm | - | - | - |
| 1777659197 | 11.67° C | 56% | 1016 hPa | 0 mm | - | - | - |
| 1777658481 | 10.56° C | 66% | 1016.1 hPa | 0 mm | - | - | - |
| 1777657764 | 10.56° C | 66% | 1016.1 hPa | 0 mm | - | - | - |
| 1777657015 | 10.56° C | 63% | 1016 hPa | 0 mm | - | - | - |
| 1777656271 | 10° C | 62% | 1016 hPa | 0 mm | - | - | - |
| 1777655559 | 10.56° C | 70% | 1016 hPa | 0 mm | - | - | - |
| 1777654858 | 10.56° C | 70% | 1016 hPa | 0 mm | - | - | - |
| 1777654099 | 9.44° C | 68% | 1016 hPa | 0 mm | - | - | - |
| 1777653359 | 9.44° C | 69% | 1016.1 hPa | 0 mm | - | - | - |
| 1777652631 | 9.44° C | 73% | 1016 hPa | 0 mm | - | - | - |
| 1777651880 | 9.44° C | 73% | 1016.1 hPa | 0 mm | - | - | - |
| 1777651151 | 8.89° C | 75% | 1016 hPa | 0 mm | - | - | - |
| 1777650446 | 8.33° C | 74% | 1015.9 hPa | 0 mm | - | - | - |
| 1777649729 | 7.22° C | 77% | 1015.9 hPa | 0 mm | - | - | - |
| 1777649001 | 7.78° C | 79% | 1015.8 hPa | 0 mm | - | - | - |
| 1777648271 | 7.22° C | 78% | 1016 hPa | 0 mm | - | - | - |
| 1777647521 | 6.67° C | 85% | 1015.9 hPa | 0 mm | - | - | - |
| 1777646794 | 5.56° C | 86% | 1015.8 hPa | 0 mm | - | - | - |
| 1777646062 | 5.56° C | 85% | 1015.6 hPa | 0 mm | - | - | - |
| 1777645314 | 5° C | 86% | 1015.5 hPa | 0 mm | - | - | - |
| 1777644575 | 4.44° C | 87% | 1015.5 hPa | 0 mm | - | - | - |
| 1777643861 | 4.44° C | 87% | 1015.4 hPa | 0 mm | - | - | - |
| 1777643103 | 4.44° C | 87% | 1015.2 hPa | 0 mm | - | - | - |
* Rain latest hour (hover to see other rain measurements)
** Current wind speed in m/s (hover to see current wind gust speed)